Home > Time Zones > World Clock > Weather > U.S.A. > Napa > Past weeks

Flag for U.S.A. Weather past 2 weeks in Napa, California, U.S.A.

Now
71 °F

Sunny.


Feels Like: 76 °F
Forecast: 54 / 96 °F
Wind: 3 mph from North

Location: Napa County Airport

Current Time: Jul 28, 2015 at 11:04:42 AM

Latest Report: Jul 28, 2015 at 9:54 AM


Visibility: 6 mi

Pressure: 29.87 "Hg

Humidity: 59%

Dew point: 56 °F

Location of NapaLocation

Historic Weather in Napa — Graph

°F

Napa temperature yesterday

Maximum temperature yesterday: 87 °F (at 3:54 PM)
Minimum temperature yesterday: 51 °F (at 5:54 AM)
Average temperature yesterday: 70 °F

Past Weeks' High & Low Weather Summary

 TemperatureHumidityPressure
High90 °F (Jul 19, 2:54 PM)100% (Jul 14, 5:54 AM)30.09 "Hg (Jul 14, 5:54 AM)
Low48 °F (Jul 24, 6:02 AM)26% (Jul 19, 1:54 PM)29.72 "Hg (Jul 17, 6:54 PM)
Average66 °F73%29.89 "Hg
* Reported Jul 13 9:54 AM — Jul 28 9:54 AM, Napa, Weather by CustomWeather, © 2015

Note: Actual official high and low records may vary slightly from our data, if they occured in-between our weather recording intervals... More about our weather records

Advertising

Napa weather history for previous 24 hours

 ConditionsComfort  
Time TempWeatherWind HumidityBarometerVisibility
9:54 AM
Tue, Jul 28
71 °FSunny.3 mph59%29.87 "Hg6 mi
8:54 AM68 °FSunny.3 mph65%29.87 "Hg10 mi
7:54 AM62 °FSunny.3 mph83%29.86 "Hg10 mi
6:54 AM53 °FClear.3 mph100%29.85 "Hg8 mi
5:54 AM52 °FClear.No wind97%29.85 "Hg8 mi
4:54 AM57 °FClear.5 mph93%29.83 "Hg8 mi
3:54 AM56 °FClear.6 mph93%29.83 "Hg9 mi
2:54 AM58 °FClear.5 mph90%29.84 "Hg10 mi
1:54 AM58 °FClear.3 mph90%29.84 "Hg10 mi
12:54 AM60 °FClear.3 mph86%29.85 "Hg10 mi
11:54 PM
Mon, Jul 27
62 °FClear.7 mph83%29.86 "Hg10 mi
10:54 PM65 °FClear.8 mph76%29.86 "Hg10 mi
9:54 PM68 °FClear.9 mph65%29.85 "Hg10 mi
8:54 PM71 °FSunny.7 mph63%29.84 "Hg10 mi
7:54 PM78 °FSunny.8 mph46%29.83 "Hg10 mi
6:54 PM85 °FSunny.14 mph27%29.83 "Hg10 mi
6:04 PM87 °FSunny.16 mph27%29.86 "Hg10 mi
5:54 PM87 °FSunny.16 mph26%29.83 "Hg10 mi
4:54 PM85 °FSunny.17 mph37%29.84 "Hg10 mi
3:54 PM87 °FSunny.16 mph35%29.85 "Hg10 mi
1:54 PM85 °FSunny.12 mph34%29.89 "Hg10 mi
12:54 PM82 °FSunny.9 mph38%29.90 "Hg10 mi
11:54 AM77 °FSunny.10 mph45%29.92 "Hg10 mi
Weather by CustomWeather, © 2015

See weather overviewHow to use our weather pages